UAE583 VGHS-OMDB

Flight info

Callsign UAE583
Flight time N/A
Altitude 32000
Route IKOGU1D IKOGU A462 CEA G450 JJS A791 BPL L639 ISLIL/N0497F340 L639 RASKI L301 RAGMA N571 VUSET A454 PASOV B540 KUPMA/N0473F240 B540 MIVEK P574 IMPED
Aircraft B77W/H-SDE1E2E3FGHIJ2J3J4J5M1RWXY/LB1D1

Departure

Time N/A
Airport Hazrat Shahjalal International Airport (VGHS)

Arrival

Time 2026-04-21 16:32
Airport Dubai International Airport (OMDB)
Time Latitude Longitude Altitude Speed Heading
2026-04-21 16:14 24.72712 56.69480 22214 ft 435 kts 299°
2026-04-21 16:15 24.74275 56.66649 21572 ft 430 kts 299°
2026-04-21 16:15 24.75812 56.63853 20950 ft 425 kts 299°
2026-04-21 16:15 24.77317 56.61110 20355 ft 421 kts 299°
2026-04-21 16:15 24.78830 56.58350 19753 ft 417 kts 299°
2026-04-21 16:16 24.80327 56.55619 19157 ft 413 kts 300°
2026-04-21 16:16 24.81808 56.52912 18548 ft 410 kts 300°
2026-04-21 16:16 24.83275 56.50233 17951 ft 406 kts 300°
2026-04-21 16:16 24.84728 56.47578 17266 ft 403 kts 300°
2026-04-21 16:17 24.86151 56.44979 16674 ft 400 kts 300°
2026-04-21 16:17 24.87399 56.42294 16067 ft 392 kts 289°
2026-04-21 16:17 24.88120 56.39424 15503 ft 389 kts 280°
2026-04-21 16:17 24.88434 56.36464 14909 ft 387 kts 270°
2026-04-21 16:18 24.88299 56.33511 14331 ft 385 kts 265°
2026-04-21 16:18 24.88101 56.30565 13745 ft 385 kts 265°
2026-04-21 16:18 24.88055 56.27626 13132 ft 382 kts 274°
2026-04-21 16:18 24.88556 56.24802 12982 ft 370 kts 284°
2026-04-21 16:19 24.89415 56.22170 12827 ft 360 kts 293°
2026-04-21 16:19 24.90590 56.19777 12678 ft 350 kts 297°
2026-04-21 16:19 24.91795 56.17487 12515 ft 340 kts 298°
2026-04-21 16:19 24.92948 56.15289 12373 ft 331 kts 297°
2026-04-21 16:20 24.94075 56.13117 12257 ft 321 kts 297°
2026-04-21 16:20 24.95165 56.10995 12117 ft 313 kts 297°
2026-04-21 16:20 24.96220 56.08930 12000 ft 305 kts 296°
2026-04-21 16:20 24.97188 56.06901 11829 ft 293 kts 288°
2026-04-21 16:21 24.97594 56.04745 11682 ft 282 kts 274°
2026-04-21 16:21 24.97789 56.02585 11340 ft 282 kts 274°
2026-04-21 16:21 24.97979 56.00424 11003 ft 283 kts 274°
2026-04-21 16:21 24.98163 55.98396 10846 ft 275 kts 274°
2026-04-21 16:22 24.98358 55.96301 10416 ft 279 kts 275°
2026-04-21 16:22 24.98563 55.94155 10035 ft 281 kts 275°
2026-04-21 16:22 24.98768 55.92043 9883 ft 273 kts 275°
2026-04-21 16:22 24.98969 55.89997 9491 ft 275 kts 275°
2026-04-21 16:23 24.99179 55.87862 8993 ft 280 kts 275°
2026-04-21 16:23 24.99387 55.85751 8814 ft 273 kts 275°
2026-04-21 16:23 24.99589 55.83696 8526 ft 270 kts 275°
2026-04-21 16:23 25.00044 55.81692 7982 ft 274 kts 297°
2026-04-21 16:24 25.01018 55.79952 7672 ft 271 kts 301°
2026-04-21 16:24 25.02040 55.78163 7305 ft 273 kts 301°
2026-04-21 16:24 25.03064 55.76424 7053 ft 270 kts 302°
2026-04-21 16:24 25.04077 55.74676 6733 ft 269 kts 301°
2026-04-21 16:25 25.05069 55.72924 6407 ft 270 kts 300°
2026-04-21 16:25 25.06056 55.71152 6095 ft 269 kts 300°
2026-04-21 16:25 25.07029 55.69396 5787 ft 268 kts 300°
2026-04-21 16:25 25.07999 55.67642 5481 ft 266 kts 301°
2026-04-21 16:26 25.08962 55.65909 5181 ft 265 kts 301°
2026-04-21 16:26 25.09923 55.64178 4871 ft 265 kts 301°
2026-04-21 16:26 25.10886 55.62442 4547 ft 265 kts 301°
2026-04-21 16:26 25.11838 55.60724 4215 ft 266 kts 302°
2026-04-21 16:27 25.12809 55.58972 3882 ft 267 kts 302°
2026-04-21 16:27 25.13773 55.57230 3538 ft 265 kts 302°
2026-04-21 16:27 25.14718 55.55526 3246 ft 249 kts 303°
2026-04-21 16:27 25.15578 55.53971 2928 ft 231 kts 303°
2026-04-21 16:28 25.16384 55.52513 2610 ft 215 kts 304°
2026-04-21 16:28 25.17135 55.51157 2378 ft 197 kts 305°
2026-04-21 16:28 25.17815 55.49928 2127 ft 176 kts 306°
2026-04-21 16:28 25.18409 55.48854 1901 ft 153 kts 307°
2026-04-21 16:29 25.18957 55.47870 1736 ft 151 kts 307°
2026-04-21 16:29 25.19501 55.46888 1543 ft 151 kts 307°
2026-04-21 16:29 25.20039 55.45900 1329 ft 149 kts 306°
2026-04-21 16:29 25.20585 55.44931 1120 ft 149 kts 304°
2026-04-21 16:30 25.21126 55.43940 975 ft 150 kts 304°
2026-04-21 16:30 25.21663 55.42964 788 ft 148 kts 304°
2026-04-21 16:30 25.22190 55.42006 571 ft 143 kts 304°
2026-04-21 16:30 25.22717 55.41059 417 ft 145 kts 302°
2026-04-21 16:31 25.23239 55.40117 180 ft 143 kts 303°
2026-04-21 16:31 25.23764 55.39169 43 ft 144 kts 303°
2026-04-21 16:31 25.24249 55.38310 31 ft 116 kts 300°
2026-04-21 16:31 25.24587 55.37689 27 ft 72 kts 302°
2026-04-21 16:32 25.24753 55.37356 28 ft 43 kts 289°
2026-04-21 16:32 25.24785 55.37107 28 ft 23 kts 271°
2026-04-21 16:32 25.24763 55.36958 26 ft 17 kts 227°
2026-04-21 16:32 25.24663 55.36885 28 ft 17 kts 210°
2026-04-21 16:33 25.24562 55.36821 29 ft 17 kts 210°
2026-04-21 16:33 25.24458 55.36755 29 ft 17 kts 210°
2026-04-21 16:33 25.24354 55.36770 27 ft 17 kts 127°
2026-04-21 16:33 25.24299 55.36872 30 ft 10 kts 106°
2026-04-21 16:34 25.24335 55.36908 27 ft 7 kts 24°
2026-04-21 16:34 25.24369 55.36930 29 ft 5 kts 32°
2026-04-21 16:34 25.24375 55.36934 30 ft 0 kts 32°